Terug naar catalogus

SL-8 DEB *

ActiefLEO
NORAD 13499·DEBRIS·🇷🇺 Russia

Gelanceerd Jul 15, 1976 vanaf Plesetsk Cosmodrome

Loading…

Volgende Passages (komende 24 uur)

TLE

VersSource: Space-Track

Epoch: Sep 14, 2026, 12:40 UTC

1 13499U 76069D   26257.52824331  .00001247  00000-0  24601-3 0  9994
2 13499  74.0526 155.8201 0012277   0.0282  58.3032 14.63530326408977

Volg SL-8 DEB * in realtime met AllMySat

Download on the App Store